Regional Weather Roundup
Issued by NWS Newport/Morehead, NC

Current Version | Previous Version | Text Only | Print | Product List | Glossary On
Versions: 1 2 3 4 5 6 7 8 9 10 11 12 13 14 15 16 17 18 19 20 21 22 23 24 25 26 27 28 29 30 31 32 33 34 35 36 37 38 39 40 41 42 43 44 45 46 47 48 49 50
416 ASUS42 KMHX 021413 RWRMHX WEATHER ROUNDUP FOR EASTERN NORTH CAROLINA NATIONAL WEATHER SERVICE NEWPORT/MOREHEAD CITY NC 1000 AM EDT MON MAY 02 2016 NOTE: "FAIR" INDICATES FEW OR NO CLOUDS BELOW 12,000 FEET WITH NO SIGNIFICANT WEATHER AND/OR OBSTRUCTIONS TO VISIBILITY NCZ015>017-031-032-045>047-102-103-021500- NORTH COAST CITY SKY/WX TMP DP RH WIND PRES REMARKS EDENTON PTSUNNY 74 70 85 SW9 30.04S ELIZABETH CITY PTSUNNY 74 68 81 SW13 30.02S KITTY HAWK PTSUNNY 75 70 83 SW12G17 30.02S MANTEO NOT AVBL $$ NCZ045>047-081-094-103-104-021500- CENTRAL COAST CITY SKY/WX TMP DP RH WIND PRES REMARKS FRISCO PTSUNNY 71 68 90 SW9 30.07R SWANQUARTER NOT AVBL $$ NCZ095-097-098-100-101-021500- SOUTHERN COAST CITY SKY/WX TMP DP RH WIND PRES REMARKS BEAUFORT CLOUDY 73 69 87 SW9 30.07S CEDAR ISLAND NOT AVBL JACKSONVILLE CLOUDY 76 69 79 W13 30.06S PINEY ISLAND NOT AVBL WILMINGTON CLOUDY 77 70 79 W12 30.06S $$ NCZ011>013-027>030-043-044-078>080-089-090>093-098-021500- COASTAL PLAIN CITY SKY/WX TMP DP RH WIND PRES REMARKS AHOSKIE MOSUNNY 73 67 82 CALM 30.02S CLINTON CLOUDY 74 70 86 SW8 30.06S ELIZABETHTOWN CLOUDY 75 69 81 SW9 30.06S GOLDSBORO CLOUDY 75 73 94 SW17 30.02F GREENVILLE PTSUNNY 77 70 78 SW9 30.05F HAVELOCK CLOUDY 76 70 82 W13 30.07S KENANSVILLE PTSUNNY 74 68 80 CALM 30.06S KINSTON CLOUDY 77 68 73 SW13 30.05S NEW BERN CLOUDY 75 69 81 SW13 30.07S RICHLANDS CLOUDY 73 70 90 SW8 30.07S ROCKY MOUNT MOSUNNY 75 67 76 SW12 30.02F WASHINGTON MOSUNNY 74 68 81 W9 30.04F WHITEVILLE CLOUDY 73 70 88 SW8 30.06S $$ AMZ130-135-150-152-154-156-158-170-250-252-270-ANZ085-086-088-633-658-670-021500- MARINE OBSERVATIONS STATION/POSITION TIME TEMP WIND PRES WAVE SWELL AIR SEA DIR/SP/G HT/PER HT/PER (UTC) (F) (DEG/KT/KT) (MB) (FT/S) (FT/S) CHESAPEAKE LIGHT 1300 66 230/ 20/ 21 1015.7 64 E VA BEACH 1350 59 53 210/ 14/ 16 1015.9 5/11 3/11 DUCK 1300 70 67 220/ 12/ 16 1016.1 2 E DUCK 1311 58 N/A 3/ 9 2/11 OREGON INLET 1300 69 67 190/ 14/ 15 1017.0 13E OREGON INLT 1400 60 N/A 5/11 3/11 HATTERAS CG 1300 71 67 220/ 8/ 11 1017.8 DIAMOND BUOY 1350 74 73 220/ 14/ 16 1018.1 5/ 9 3/ 9 CAPE LOOKOUT 1300 73 220/ 9/ 11 1017.9 BEAUFORT LAB 1300 72 67 220/ 7/ 11 1017.3 30 SE NEW RVR IN 1325 69 N/A 4/ 6 27 SE WRIGHTSVLE 1308 73 71 220/ 10/ 14 1018.2 5 SE WRIGHTSVLE 1308 71 68 230/ 10/ 12 1018.8 225 S CAPE HAT 1350 73 74 160/ 8/ 10 1020.9 3/10 3/10 41 SE CHARLESTON 1350 75 73 230/ 6/ 8 1018.1 3/ 5 3/ 5 $$

USA.gov is the U.S. government's official web portal to all federal, state and local government web resources and services.